QPF
0.00 0.00 0.00 0.00 0.00 0.00 0.00 0.01 0.04 0.09 0.11 0.07 0.01 0.02 0.05 0.04 0.01 0.03 0.11 0.08 0.05 0.02
0.00 0.00 0.00 0.00 0.00 0.00 0.00 0.01 0.05 0.06 0.03 0.03 0.02 0.01 0.03 0.03 0.07 0.04 0.11 0.21 0.20 0.13
0.00 0.00 0.00 0.00 0.00 0.00 0.00 0.01 0.06 0.07 0.04 0.02 0.01 0.02 0.06 0.07 0.09 0.11 0.08 0.16 0.41 0.40
0.00 0.00 0.01 0.02 0.02 0.03 0.01 0.03 0.07 0.09 0.12 0.08 0.03 0.02 0.02 0.04 0.06 0.14 0.12 0.04 0.06 0.42
0.00 0.00 0.01 0.01 0.02 0.06 0.07 0.11 0.12 0.13 0.13 0.13 0.18 0.08 0.03 0.04 0.05 0.07 0.11 0.03 0.02 0.10
0.05 0.02 0.01 0.01 0.03 0.20 0.22 0.21 0.27 0.27 0.28 0.13 0.11 0.07 0.04 0.03 0.02 0.02 0.04 0.04 0.10 0.06
0.06 0.11 0.13 0.14 0.15 0.22 0.47 0.40 0.35 0.33 0.44 0.43 0.22 0.04 0.06 0.08 0.05 0.04 0.06 0.08 0.09 0.05
0.13 0.19 0.17 0.16 0.28 0.33 0.35 0.49 0.42 0.25 0.18 0.20 0.24 0.10 0.08 0.11 0.12 0.12 0.09 0.04 0.02 0.01
0.03 0.06 0.18 0.17 0.15 0.18 0.11 0.09 0.10 0.16 0.13 0.10 0.10 0.13 0.13 0.19 0.16 0.15 0.10 0.05 0.02 0.01
0.04 0.05 0.13 0.09 0.09 0.14 0.16 0.09 0.03 0.05 0.09 0.10 0.13 0.24 0.34 0.23 0.13 0.10 0.10 0.06 0.02 0.01
0.06 0.06 0.05 0.09 0.16 0.17 0.21 0.17 0.10 0.04 0.03 0.08 0.16 0.27 0.31 0.25 0.12 0.13 0.09 0.11 0.09 0.04
0.07 0.05 0.02 0.03 0.04 0.12 0.15 0.19 0.23 0.21 0.18 0.17 0.27 0.40 0.38 0.48 0.25 0.16 0.13 0.11 0.10 0.09
0.05 0.03 0.05 0.04 0.05 0.08 0.09 0.13 0.16 0.24 0.37 0.43 0.38 0.50 0.54 0.57 0.55 0.44 0.38 0.25 0.16 0.16
0.03 0.04 0.06 0.04 0.04 0.04 0.06 0.07 0.14 0.21 0.29 0.36 0.48 0.55 0.52 0.43 0.40 0.46 0.49 0.49 0.42 0.34
MSLP
1010.74 1010.11 1009.28 1008.50 1007.70 1006.60 1005.41 1004.12 1003.13 1001.79 1001.47 1000.87 1001.68 1002.57 1003.68 1004.33 1004.43 1004.80 1005.37 1005.89 1006.12 1006.62
1010.57 1009.82 1008.95 1008.12 1007.26 1006.16 1005.16 1003.90 1003.04 1002.18 1000.99 1000.84 1001.40 1001.81 1002.26 1003.11 1003.45 1004.02 1004.52 1005.29 1005.78 1005.81
1010.36 1009.45 1008.30 1007.14 1006.02 1005.05 1004.05 1003.25 1002.34 1001.47 1000.33 1000.33 1000.40 1001.04 1001.32 1001.96 1002.45 1003.22 1003.92 1004.67 1005.38 1005.56
1009.97 1008.78 1007.52 1006.39 1005.10 1003.80 1002.51 1001.49 1001.01 1000.18 999.26 999.07 999.57 1000.02 1000.43 1000.89 1001.29 1002.05 1003.09 1003.70 1004.45 1004.91
1009.66 1008.30 1006.97 1005.53 1004.13 1002.93 1001.10 998.53 998.83 998.45 997.76 997.85 998.14 998.81 999.33 999.95 1000.63 1001.24 1002.32 1002.92 1003.51 1003.93
1009.37 1007.97 1006.76 1005.23 1004.09 1002.74 1000.94 999.02 997.03 996.60 996.77 996.89 997.23 997.93 998.59 999.08 1000.03 1000.78 1001.26 1001.91 1002.29 1003.21
1009.56 1008.59 1006.99 1005.69 1004.77 1002.93 1001.74 999.60 998.00 997.07 996.47 996.41 996.80 997.55 998.42 998.90 999.67 1000.31 1000.95 1001.52 1002.47 1003.42
1009.97 1008.85 1007.38 1006.49 1005.18 1003.97 1002.63 1001.39 1000.87 997.95 997.97 998.81 998.34 998.97 998.67 998.69 999.28 1000.18 1001.19 1002.33 1003.91 1005.04
1010.38 1009.49 1008.64 1007.49 1006.12 1005.00 1003.68 1002.55 1001.71 1000.35 1000.89 1000.84 1000.67 1000.09 998.88 998.18 999.34 1000.40 1001.36 1003.11 1004.93 1005.86
1011.49 1010.69 1009.75 1008.92 1007.53 1006.58 1005.73 1004.45 1004.40 1003.53 1003.01 1002.94 1002.84 1001.96 1000.73 1000.85 1001.17 1002.03 1003.03 1003.92 1005.17 1005.77
1012.55 1011.73 1010.88 1009.99 1009.27 1008.48 1007.48 1006.81 1007.14 1006.17 1005.55 1004.93 1004.93 1004.36 1003.36 1004.07 1003.73 1004.45 1005.15 1005.64 1006.44 1006.19
1013.60 1012.71 1011.99 1011.26 1010.66 1010.18 1009.51 1009.06 1008.66 1008.46 1007.55 1007.08 1007.70 1006.31 1006.17 1005.36 1007.28 1005.67 1006.85 1007.33 1007.88 1008.01
1014.95 1014.19 1013.52 1012.91 1012.26 1011.95 1011.30 1011.03 1010.80 1010.22 1009.77 1009.90 1010.00 1009.19 1008.43 1007.21 1009.94 1007.55 1008.75 1008.49 1010.02 1010.16
1016.26 1015.77 1015.19 1014.54 1014.03 1013.56 1013.14 1012.80 1012.49 1012.44 1012.49 1012.48 1012.37 1011.76 1011.00 1010.50 1010.96 1010.46 1010.92 1011.59 1011.65 1012.26
Thickness
5544 5550 5558 5565 5572 5581 5592 5605 5617 5632 5639 5630 5639 5641 5636 5634 5639 5641 5638 5636 5637 5639
5531 5536 5544 5550 5557 5567 5576 5589 5598 5609 5625 5632 5632 5633 5635 5631 5634 5634 5634 5629 5629 5634
5517 5522 5529 5538 5545 5553 5563 5570 5581 5594 5610 5619 5625 5626 5629 5628 5630 5629 5626 5624 5620 5623
5503 5510 5518 5525 5535 5546 5557 5569 5575 5587 5601 5612 5615 5620 5622 5627 5629 5628 5622 5620 5619 5619
5491 5499 5508 5519 5531 5541 5557 5581 5582 5588 5599 5606 5613 5616 5620 5622 5622 5623 5617 5618 5620 5622
5482 5491 5500 5513 5523 5533 5548 5565 5583 5590 5598 5605 5611 5611 5615 5619 5615 5617 5619 5619 5622 5619
5473 5480 5493 5502 5509 5523 5532 5550 5558 5575 5594 5599 5604 5607 5609 5611 5610 5612 5612 5612 5608 5607
5462 5471 5481 5486 5499 5507 5517 5524 5524 5548 5570 5571 5579 5581 5601 5605 5607 5606 5598 5592 5583 5578
5454 5461 5466 5474 5484 5493 5506 5514 5524 5540 5539 5548 5555 5570 5585 5599 5598 5594 5592 5579 5567 5564
5441 5448 5453 5458 5467 5476 5485 5498 5500 5511 5521 5527 5534 5546 5560 5565 5569 5570 5567 5565 5559 5557
5430 5436 5441 5448 5451 5457 5467 5475 5475 5486 5495 5504 5509 5518 5530 5530 5539 5537 5536 5537 5536 5545
5419 5426 5431 5436 5440 5443 5449 5455 5460 5465 5475 5481 5480 5496 5501 5512 5500 5518 5515 5516 5517 5519
5406 5411 5416 5421 5426 5428 5434 5436 5440 5448 5453 5454 5456 5466 5476 5489 5467 5492 5493 5499 5489 5493
5394 5397 5401 5406 5409 5414 5417 5420 5424 5425 5425 5425 5429 5437 5448 5454 5455 5464 5464 5463 5467 5464